TimeCDT,TemperatureF,Dew PointF,Humidity,Sea Level PressureIn,VisibilityMPH,Wind Direction,Wind SpeedMPH,Gust SpeedMPH,PrecipitationIn,Events,Conditions,WindDirDegrees,DateUTC
12:15 AM,77.7,70.3,78,30.11,10.0,South,10.4,-,N/A,,Clear,190,2013-08-26 05:15:00
12:35 AM,77.2,70.2,79,30.12,10.0,SSW,10.4,-,N/A,,Clear,200,2013-08-26 05:35:00
12:55 AM,76.5,70.0,80,30.11,10.0,SSW,9.2,-,N/A,,Clear,200,2013-08-26 05:55:00
1:15 AM,76.1,70.0,81,30.11,10.0,SSW,9.2,-,N/A,,Clear,200,2013-08-26 06:15:00
1:35 AM,75.7,69.8,82,30.12,10.0,SSW,10.4,-,N/A,,Clear,200,2013-08-26 06:35:00
1:55 AM,75.2,69.8,83,30.11,10.0,SSW,10.4,-,N/A,,Clear,200,2013-08-26 06:55:00
2:15 AM,75.0,69.8,84,30.11,10.0,SSW,9.2,-,N/A,,Clear,200,2013-08-26 07:15:00
2:35 AM,74.3,69.8,86,30.11,10.0,SSW,9.2,-,N/A,,Clear,200,2013-08-26 07:35:00
2:55 AM,74.1,69.8,86,30.11,10.0,SSW,9.2,-,N/A,,Clear,200,2013-08-26 07:55:00
3:15 AM,73.6,69.8,88,30.11,10.0,SSW,9.2,-,N/A,,Clear,200,2013-08-26 08:15:00
3:35 AM,73.4,69.8,88,30.11,10.0,SSW,9.2,-,N/A,,Clear,200,2013-08-26 08:35:00
3:55 AM,72.9,71.1,94,30.11,10.0,SSW,8.1,-,N/A,,Clear,200,2013-08-26 08:55:00
4:15 AM,72.5,71.4,96,30.11,10.0,SSW,8.1,-,N/A,,Clear,200,2013-08-26 09:15:00
4:35 AM,72.5,71.6,97,30.11,10.0,SSW,9.2,-,N/A,,Clear,200,2013-08-26 09:35:00
4:55 AM,72.7,71.6,96,30.11,10.0,SSW,8.1,-,N/A,,Clear,210,2013-08-26 09:55:00
5:15 AM,72.9,71.6,96,30.11,10.0,SSW,9.2,-,N/A,,Clear,200,2013-08-26 10:15:00
5:35 AM,72.7,71.6,96,30.11,10.0,SSW,8.1,-,N/A,,Clear,210,2013-08-26 10:35:00
5:55 AM,72.5,71.6,97,30.11,10.0,SSW,8.1,-,N/A,,Clear,210,2013-08-26 10:55:00
6:15 AM,71.8,71.1,98,30.11,10.0,SSW,8.1,-,N/A,,Clear,200,2013-08-26 11:15:00
6:35 AM,72.5,71.6,97,30.11,10.0,SSW,8.1,-,N/A,,Clear,200,2013-08-26 11:35:00
6:55 AM,72.1,71.2,97,30.12,10.0,SSW,8.1,-,N/A,,Clear,200,2013-08-26 11:55:00
7:15 AM,72.5,71.6,97,30.12,10.0,SSW,8.1,-,N/A,,Clear,200,2013-08-26 12:15:00
7:35 AM,73.4,72.0,95,30.12,10.0,SSW,6.9,-,N/A,,Clear,200,2013-08-26 12:35:00
7:55 AM,74.3,72.3,94,30.12,10.0,SSW,8.1,-,N/A,,Clear,200,2013-08-26 12:55:00
8:15 AM,75.4,71.8,89,30.11,10.0,SSW,10.4,-,N/A,,Clear,210,2013-08-26 13:15:00
8:35 AM,76.8,70.9,82,30.11,10.0,SSW,11.5,-,N/A,,Clear,210,2013-08-26 13:35:00
8:55 AM,78.3,71.1,78,30.11,10.0,SSW,10.4,-,N/A,,Clear,210,2013-08-26 13:55:00
9:15 AM,79.9,71.6,76,30.11,10.0,SSW,11.5,-,N/A,,Clear,210,2013-08-26 14:15:00
9:35 AM,81.3,71.4,72,30.11,10.0,SW,11.5,-,N/A,,Clear,220,2013-08-26 14:35:00
9:55 AM,82.9,71.1,67,30.11,10.0,SSW,11.5,-,N/A,,Clear,210,2013-08-26 14:55:00
10:15 AM,84.2,71.2,65,30.11,7.0,SSW,15.0,-,N/A,,Clear,210,2013-08-26 15:15:00
10:35 AM,85.3,71.1,62,30.11,5.0,SSW,13.8,-,N/A,,Haze,210,2013-08-26 15:35:00
10:55 AM,87.1,71.4,59,30.10,5.0,SSW,11.5,-,N/A,,Haze,210,2013-08-26 15:55:00
11:15 AM,88.2,69.6,54,30.10,5.0,SSW,13.8,18.4,N/A,,Haze,210,2013-08-26 16:15:00
11:35 AM,88.7,68.5,51,30.10,7.0,SW,15.0,23.0,N/A,,Clear,230,2013-08-26 16:35:00
11:55 AM,90.0,69.1,50,30.09,10.0,SSW,16.1,19.6,N/A,,Clear,200,2013-08-26 16:55:00
12:15 PM,88.2,67.6,50,30.09,10.0,SW,12.7,-,N/A,,Clear,220,2013-08-26 17:15:00
12:35 PM,88.5,68.4,51,30.08,7.0,SW,13.8,20.7,N/A,,Clear,220,2013-08-26 17:35:00
12:55 PM,90.3,70.0,51,30.08,5.0,SW,12.7,18.4,N/A,,Haze,230,2013-08-26 17:55:00
1:15 PM,91.8,68.2,46,30.07,7.0,SW,15.0,-,N/A,,Clear,220,2013-08-26 18:15:00
1:35 PM,92.7,68.0,44,30.06,5.0,SSW,15.0,19.6,N/A,,Haze,200,2013-08-26 18:35:00
1:55 PM,93.7,68.4,43,30.06,3.0,SW,15.0,20.7,N/A,,Haze,230,2013-08-26 18:55:00
2:15 PM,93.7,69.3,45,30.05,4.0,SW,16.1,19.6,N/A,,Haze,220,2013-08-26 19:15:00
2:35 PM,94.1,68.0,42,30.05,7.0,SSW,13.8,19.6,N/A,,Clear,210,2013-08-26 19:35:00
2:55 PM,94.6,68.4,42,30.04,7.0,SW,13.8,-,N/A,,Clear,220,2013-08-26 19:55:00
3:15 PM,94.3,68.7,43,30.04,7.0,SSW,12.7,18.4,N/A,,Clear,210,2013-08-26 20:15:00
3:35 PM,94.5,68.2,42,30.04,5.0,SW,12.7,23.0,N/A,,Haze,220,2013-08-26 20:35:00
3:55 PM,94.3,68.2,42,30.03,7.0,SW,15.0,21.9,N/A,,Clear,220,2013-08-26 20:55:00
4:15 PM,94.6,68.5,42,30.03,7.0,South,16.1,23.0,N/A,,Clear,190,2013-08-26 21:15:00
4:35 PM,94.8,68.4,42,30.02,7.0,South,18.4,25.3,N/A,,Clear,190,2013-08-26 21:35:00
4:55 PM,94.5,67.3,41,30.02,5.0,SSW,11.5,18.4,N/A,,Haze,210,2013-08-26 21:55:00
5:15 PM,94.1,66.9,41,30.02,7.0,SSW,16.1,20.7,N/A,,Clear,210,2013-08-26 22:15:00
5:35 PM,93.7,68.4,43,30.02,10.0,SSW,12.7,16.1,N/A,,Clear,200,2013-08-26 22:35:00
5:55 PM,93.4,68.9,45,30.02,10.0,South,11.5,-,N/A,,Clear,190,2013-08-26 22:55:00
6:15 PM,92.5,68.4,45,30.02,10.0,SSW,12.7,-,N/A,,Clear,200,2013-08-26 23:15:00
6:35 PM,91.8,70.0,49,30.02,10.0,South,10.4,-,N/A,,Clear,190,2013-08-26 23:35:00
6:55 PM,90.5,69.3,50,30.01,10.0,South,12.7,-,N/A,,Clear,180,2013-08-26 23:55:00
7:15 PM,88.9,69.4,52,30.01,10.0,South,10.4,-,N/A,,Clear,190,2013-08-27 00:15:00
7:35 PM,87.1,69.6,56,30.01,10.0,South,9.2,-,N/A,,Clear,180,2013-08-27 00:35:00
7:55 PM,85.3,69.6,59,30.01,10.0,South,9.2,-,N/A,,Clear,180,2013-08-27 00:55:00
8:15 PM,83.3,69.6,63,30.01,10.0,South,8.1,-,N/A,,Clear,180,2013-08-27 01:15:00
8:35 PM,82.9,69.8,64,30.01,10.0,South,9.2,-,N/A,,Clear,190,2013-08-27 01:35:00
8:55 PM,82.8,69.1,63,30.00,10.0,SSW,12.7,-,N/A,,Clear,200,2013-08-27 01:55:00
9:15 PM,81.7,69.4,66,30.00,10.0,South,9.2,-,N/A,,Clear,190,2013-08-27 02:15:00
9:35 PM,81.5,69.3,66,30.00,10.0,SSW,12.7,-,N/A,,Clear,200,2013-08-27 02:35:00
9:55 PM,81.0,68.9,67,30.00,10.0,South,11.5,-,N/A,,Clear,190,2013-08-27 02:55:00
10:15 PM,80.8,68.9,67,29.99,10.0,SSW,11.5,-,N/A,,Clear,200,2013-08-27 03:15:00
10:35 PM,80.8,68.2,65,29.99,10.0,SSW,12.7,-,N/A,,Clear,200,2013-08-27 03:35:00
10:55 PM,80.8,67.6,64,29.99,10.0,SSW,13.8,-,N/A,,Clear,200,2013-08-27 03:55:00
11:15 PM,80.2,67.6,65,30.00,10.0,South,12.7,-,N/A,,Clear,190,2013-08-27 04:15:00
11:35 PM,79.2,67.8,68,30.00,10.0,SSW,12.7,-,N/A,,Clear,200,2013-08-27 04:35:00
11:55 PM,79.0,68.0,69,30.00,10.0,SSW,13.8,20.7,N/A,,Clear,200,2013-08-27 04:55:00